TimePDT,TemperatureF,Dew PointF,Humidity,Sea Level PressureIn,VisibilityMPH,Wind Direction,Wind SpeedMPH,Gust SpeedMPH,PrecipitationIn,Events,Conditions,WindDirDegrees,DateUTC
12:53 AM,44.1,39.9,85,30.06,9.0,Calm,Calm,-,N/A,,Clear,0,2013-03-24 07:53:00
1:53 AM,43.0,39.9,89,30.06,8.0,Calm,Calm,-,N/A,,Clear,0,2013-03-24 08:53:00
2:53 AM,42.1,39.9,92,30.05,8.0,North,3.5,-,N/A,,Clear,360,2013-03-24 09:53:00
3:53 AM,41.0,39.0,93,30.05,8.0,NW,4.6,-,N/A,,Clear,320,2013-03-24 10:53:00
4:53 AM,41.0,37.9,89,30.04,10.0,Calm,Calm,-,N/A,,Clear,0,2013-03-24 11:53:00
5:53 AM,39.9,37.0,89,30.05,9.0,Calm,Calm,-,N/A,,Clear,0,2013-03-24 12:53:00
6:53 AM,39.0,36.0,89,30.06,10.0,Calm,Calm,-,N/A,,Clear,0,2013-03-24 13:53:00
7:22 AM,37.4,35.6,93,30.07,2.0,Calm,Calm,-,N/A,,Partly Cloudy,0,2013-03-24 14:22:00
7:26 AM,37.4,35.6,93,30.08,1.0,Calm,Calm,-,N/A,,Mist,0,2013-03-24 14:26:00
7:30 AM,37.4,35.6,93,30.08,10.0,Calm,Calm,-,N/A,Fog,Patches of Fog,0,2013-03-24 14:30:00
7:53 AM,39.0,37.9,96,30.06,10.0,Calm,Calm,-,N/A,Fog,Patches of Fog,0,2013-03-24 14:53:00
8:53 AM,45.0,42.1,90,30.07,9.0,Calm,Calm,-,N/A,,Scattered Clouds,0,2013-03-24 15:53:00
9:53 AM,50.0,42.1,74,30.07,10.0,Calm,Calm,-,N/A,,Scattered Clouds,0,2013-03-24 16:53:00
10:53 AM,55.9,42.1,60,30.07,10.0,Calm,Calm,-,N/A,,Scattered Clouds,0,2013-03-24 17:53:00
11:53 AM,60.1,41.0,49,30.06,10.0,Variable,4.6,-,N/A,,Clear,0,2013-03-24 18:53:00
12:53 PM,64.9,43.0,45,30.04,10.0,South,6.9,-,N/A,,Scattered Clouds,180,2013-03-24 19:53:00
1:53 PM,68.0,45.0,43,30.01,10.0,South,9.2,-,N/A,,Partly Cloudy,190,2013-03-24 20:53:00
2:53 PM,70.0,43.0,38,29.99,10.0,South,8.1,-,N/A,,Partly Cloudy,180,2013-03-24 21:53:00
3:53 PM,69.1,43.0,39,29.96,10.0,South,10.4,-,N/A,,Scattered Clouds,190,2013-03-24 22:53:00
4:53 PM,69.1,42.1,38,29.96,10.0,South,10.4,-,N/A,,Scattered Clouds,180,2013-03-24 23:53:00
5:53 PM,66.9,44.1,44,29.94,10.0,South,9.2,-,N/A,,Clear,180,2013-03-25 00:53:00
6:53 PM,57.0,46.0,67,29.95,10.0,SSE,6.9,-,N/A,,Mostly Cloudy,150,2013-03-25 01:53:00
7:53 PM,53.1,45.0,74,29.95,10.0,South,9.2,-,N/A,,Clear,170,2013-03-25 02:53:00
8:53 PM,48.9,43.0,80,29.96,10.0,SE,4.6,-,N/A,,Clear,140,2013-03-25 03:53:00
9:53 PM,48.0,43.0,83,29.98,9.0,South,3.5,-,N/A,,Clear,170,2013-03-25 04:53:00
10:53 PM,46.9,43.0,86,29.98,9.0,SSE,3.5,-,N/A,,Clear,160,2013-03-25 05:53:00
11:53 PM,46.9,43.0,86,29.98,9.0,Calm,Calm,-,N/A,,Clear,0,2013-03-25 06:53:00